Regional Weather Roundup
Issued by NWS State College, PA

Home | Current Version | Previous Version | Graphics & Text | Print | Product List | Glossary Off
Versions: 1 2 3 4 5 6 7 8 9 10 11 12 13 14 15 16 17 18 19 20 21 22 23 24 25 26 27 28 29 30 31 32 33 34 35 36 37 38 39 40 41 42 43 44 45 46 47 48 49 50

821
ASUS41 KCTP 301903
RWRCTP

REGIONAL WEATHER ROUNDUP
NATIONAL WEATHER SERVICE STATE COLLEGE PA
300 PM EDT SAT JUL 30 2016

Note: "fair" indicates few or no clouds below 12,000 feet with no
significant weather and/or obstructions to visibility.

* = STATION THAT DOES NOT REPORT PRECIPITATION /E.G. RAIN...SNOW...ETC/
    THUNDER OR FOG.

PAZ002>004-007>009-013>016-020>023-029>032-302000-
WESTERN PENNSYLVANIA

CITY           SKY/WX    TMP DP  RH WIND       PRES   REMARKS
ERIE           CLOUDY    78  69  73 NE16      29.95F
MEADVILLE      PTSUNNY   74  67  78 VRB3      29.98F
FRANKLIN*      CLOUDY    73  66  78 E7        30.00S
NEW CASTLE     CLOUDY    78  69  73 CALM      29.97F
BEAVER COUNTY  PTSUNNY   77  70  78 SE3       29.98S
BUTLER*        PTSUNNY   73  70  88 SE8       30.00F
PITTSBURGH INT PTSUNNY   76  67  73 SE5       29.96F
PITTSBURGH     CLOUDY    72  68  87 CALM      29.96F
INDIANA*       PTSUNNY   72  72 100 E6        30.00F FOG
LATROBE        LGT RAIN  72  72 100 S5        29.99F FOG
WASHINGTON CO* CLOUDY    73  70  88 E5        29.98S
$$

PAZ004>006-010>012-017>019-024>028-033>037-041-042-045-046-049>053-302000-
CENTRAL PENNSYLVANIA

CITY           SKY/WX    TMP DP  RH WIND       PRES   REMARKS
BRADFORD       CLOUDY    67  63  87 E9        30.04F
DUBOIS         CLOUDY    70  66  87 E7        30.01F
CLEARFIELD     LGT RAIN  71  67  87 NE9       30.00F
JOHNSTOWN      LGT RAIN  71  65  81 CALM      30.02F
ALTOONA        LGT RAIN  71  71 100 N7        29.99F
STATE COLLEGE  PTSUNNY   72  68  88 E5        29.99F FOG
WILLIAMSPORT   TSTM      72  67  84 VRB3G20   29.97R VSB 3/4
SELINSGROVE    RAIN      79  76  90 SW3       29.96S FOG
FT INDIANTOWN  RAIN      72  70  94 E8        29.99S FOG
CAPITAL CITY   LGT RAIN  77  72  84 E9        29.96S
HARRISBURG     LGT RAIN  76  74  93 E8        29.96R
YORK           LGT RAIN  75  71  87 VRB7      29.95F FOG
$$

PAZ038>040-043-044-047-048-054-055-060>062-067>071-302000-
EASTERN PENNSYLVANIA

CITY           SKY/WX    TMP DP  RH WIND       PRES   REMARKS
SCRANTON       CLOUDY    71  69  93 N9        30.00S
MOUNT POCONO   PTSUNNY   78  67  68 SE3       30.04F
ALLENTOWN      RAIN      75  72  88 VRB7      29.96F
QUAKERTOWN*    CLOUDY    77  70  78 CALM      29.99R
READING        RAIN      72  68  87 CALM      29.98S FOG
LANCASTER      HVY RAIN  69  68  96 NE8       29.98F FOG
COATESVILLE    CLOUDY    75  68  78 CALM      30.00F
POTTSTOWN      LGT RAIN  76  70  82 SW6       30.00F
BLUE BELL      CLOUDY    79  73  83 SW7       29.96F
DOYLESTOWN     LGT RAIN  76  71  85 N6        29.96F
WILLOW GROVE   NOT AVBL
NORTH PHILA    CLOUDY    87  70  56 SW15G25   29.96F
PHILADELPHIA   CLOUDY    84  68  58 S14       29.97S
$$




USA.gov is the U.S. government's official web portal to all federal, state and local government web resources and services.